#timestamp,LO_Frequency,Hit,StdDev 
1708045215.6,286046995.1,Y
1708045235.4,286047001.0,P
1708045255.3,286046999.1,N
1708045275.1,286047002.4,N
1708045276.0,286047002.4,N
1708045295.8,286047002.2,N
1708045315.7,286047002.6,N
1708045335.5,286047002.7,N
1708045355.3,286046999.8,N
1708045375.2,286047001.0,N
1708045395.0,286046998.8,N
1708045415.1,286046999.2,N
1708045416.0,286046999.2,N
1708045435.8,286046999.4,N
1708045455.6,286046999.2,N
1708045475.5,286046999.6,N
1708045495.3,286046998.1,N
1708045515.2,286046998.1,N
1708045535.9,286047000.1,N
1708045555.7,286046998.1,N
1708045575.6,286047000.7,N
1708045595.4,286046999.3,N
1708045615.2,286046998.6,N
1708045635.2,286046998.8,N
1708045655.1,286047002.3,N
1708045656.0,286047002.3,N
1708045675.8,286047002.2,N
1708045695.6,286047004.0,N
1708045715.5,286047003.6,N
1708045735.3,286047003.2,N
1708045755.1,286047005.5,N
1708045775.9,286047005.2,N
1708045795.7,286047005.0,N
1708045815.6,286047003.9,N
1708045835.4,286047002.7,N
1708045855.2,286047001.1,N
1708045875.1,286046999.8,N
1708045895.0,286047001.1,N
1708045895.9,286047001.1,N
1708045915.8,286047001.1,N
1708045935.6,286047002.0,N
1708045955.4,286046999.0,N
1708045975.3,286046998.2,N
1708045995.1,286046999.7,N
1708045996.0,286046999.7,N
1708046015.8,286047004.2,N
1708046035.7,286047004.2,N
1708046055.5,286046999.8,N
1708046075.3,286047006.0,N
1708046095.2,286047006.0,N
1708046115.0,286047002.1,N
1708046115.9,286047002.1,N
1708046135.8,286047002.5,N
1708046155.6,286047000.5,N
1708046175.4,286047002.1,N
1708046195.3,286047001.1,N
1708046215.1,286046998.6,N
1708046235.8,286046998.3,N
1708046255.7,286047000.8,N
1708046275.5,286047000.1,N
1708046295.4,286047002.1,N
1708046315.2,286047004.0,N
1708046335.0,286047004.0,N
1708046335.9,286047004.0,N
1708046355.8,286047001.4,N
1708046375.6,286047000.1,N
1708046395.4,286047001.7,N
1708046415.3,286047001.8,N
1708046435.1,286046999.9,N
1708046455.9,286047004.4,N
1708046475.7,286047004.4,N
1708046495.5,286047003.3,N
1708046515.6,286047003.8,N
1708046535.5,286047001.7,N
1708046555.4,286047004.0,N
1708046575.2,286047005.9,N
1708046595.0,286047005.9,N
1708046595.9,286047005.9,N
1708046615.8,286047005.9,N
1708046635.6,286047005.1,N
1708046655.5,286047004.2,N
1708046675.3,286047002.5,N
1708046695.1,286047004.2,N
1708046715.9,286047003.2,N
1708046735.7,286047001.5,N
1708046755.5,286046998.2,N
1708046775.4,286046999.0,N
1708046795.2,286046997.0,N
1708046815.0,286047000.7,N
1708046816.0,286047000.7,N
1708046835.8,286047000.8,N
1708046855.6,286047002.7,N
1708046875.5,286047003.6,N
1708046895.3,286047002.0,N
1708046915.1,286046999.9,N
1708046935.9,286047002.5,N
1708046955.7,286047003.5,N
1708046975.5,286047003.4,N
1708046995.4,286047003.5,N
1708047015.2,286047004.7,N
1708047035.1,286047004.6,N
1708047036.0,286047004.6,N
1708047055.8,286047001.4,N
1708047075.6,286047002.8,N
1708047095.5,286047001.3,N
1708047115.3,286047001.9,N
1708047135.1,286047001.9,N
1708047155.9,286047003.4,N
1708047175.7,286047003.4,N
1708047195.6,286047005.7,N
1708047215.4,286047004.3,N
1708047235.2,286047004.4,N
1708047255.1,286047002.5,N
1708047256.0,286047002.5,N
1708047275.8,286047000.9,N
1708047295.6,286047000.4,N
1708047315.5,286047001.1,N
1708047335.3,286047001.1,N
1708047355.2,286046998.6,N
1708047375.9,286046999.4,N
1708047395.7,286046998.3,N
1708047415.6,286046999.7,N
1708047435.4,286047001.6,N
1708047455.2,286047003.7,N
1708047475.1,286047001.3,N
1708047476.0,286047001.3,N
1708047495.8,286047003.7,N
1708047515.7,286047000.3,N
1708047535.5,286046999.7,N
1708047555.3,286047001.2,N
1708047575.2,286047002.8,N
1708047595.9,286047001.4,N
1708047615.7,286046998.5,N
1708047635.6,286046998.4,N
1708047655.4,286046998.5,N
1708047675.2,286046998.9,N
1708047695.1,286046998.4,N
1708047696.0,286046998.4,N
1708047715.8,286047002.8,N
1708047735.7,286046998.1,N
1708047755.5,286046999.3,N
1708047775.1,286047000.4,N
1708047776.0,286047000.4,N
1708047795.8,286046999.8,N
1708047815.7,286046998.1,N
1708047835.5,286046998.8,N
1708047855.3,286046998.1,N
1708047875.2,286047000.6,N
1708047895.0,286047000.4,N
1708047895.9,286047000.4,N
1708047915.7,286046998.2,N
1708047935.6,286047000.1,N
1708047955.4,286047002.5,N
1708047975.3,286047001.4,N
1708047995.1,286047003.1,N
1708047996.0,286047003.1,N
1708048015.8,286047005.2,N
1708048035.7,286047003.0,N
1708048055.5,286047002.4,N
1708048075.3,286047002.2,N
1708048095.2,286046999.8,N
1708048115.0,286047000.1,N
1708048115.9,286047000.1,N
1708048135.8,286046999.0,N
1708048155.6,286046999.2,N
1708048175.5,286046999.1,N
1708048195.4,286047001.1,N
1708048215.2,286046996.9,N
1708048235.1,286046999.5,N
1708048236.0,286046999.5,N
1708048255.8,286046998.2,N
1708048275.6,286046998.8,N
1708048295.5,286047000.2,N
1708048315.3,286047001.5,N
1708048335.1,286047005.9,Y
1708048355.9,286047002.8,P
1708048375.7,286047003.8,P
1708048395.6,286047002.5,N
1708048415.4,286047001.6,N
1708048435.2,286047001.7,N
1708048455.1,286047003.3,Y
1708048456.0,286047003.3,P
1708048475.8,286047002.6,P
1708048495.6,286047004.4,P
1708048515.5,286047000.0,N
1708048535.3,286047000.6,N
1708048555.2,286047000.5,N
1708048575.4,286047001.5,N
1708048595.3,286047004.1,N
1708048615.2,286047002.2,N
1708048635.0,286047002.0,N
1708048635.9,286047002.0,N
1708048655.7,286047003.8,N
1708048675.6,286047003.0,N
1708048695.4,286047004.4,Y
1708048715.3,286046999.6,P
1708048735.1,286046996.8,N
1708048755.8,286046996.9,N
1708048775.7,286046999.6,N
1708048795.6,286046999.3,N
